Weather History for KLNR - March, 2013

Change the Weather History Date:

Thursday, March 7, 2013

  Actual Average Record
Temperature  
Mean Temperature 17 °F -  
Max Temperature 34 °F 34 °F 62 °F (2012)
Min Temperature 0 °F 18 °F 0 °F (2013)
Degree Days  
Heating Degree Days 48    
Moisture  
Dew Point 7 °F    
Average Humidity 75    
Maximum Humidity 92    
Minimum Humidity 52    
Precipitation  
Precipitation 0.00 in - - ()
Sea Level Pressure  
Sea Level Pressure 30.41 in    
Wind  
Wind Speed 0 mph (East)    
Max Wind Speed 9 mph    
Max Gust Speed -    
Visibility 8 miles    
Events Snow    
Averages and records for this station are not official NWS values.
T = Trace of Precipitation, MM = Missing Value Source: NWS Daily Summary

Daily Weather History Graph

Daily Weather History Graph

Search for Another Location

Airport or City:

Trip Planner

Search our weather history database for the weather conditions in past years. The results will help you decide how hot, cold, wet, or windy it might be!

Date:

Astronomy

Mar. 07, 2013 Rise Set
Actual Time 6:26 AM CST 5:57 PM CST
Civil Twilight 5:57 AM CST 6:26 PM CST
Nautical Twilight 5:24 AM CST 6:59 PM CST
Astronomical Twilight 4:51 AM CST 7:32 PM CST
Moon 3:32 AM CST (3/7) 1:40 PM CST (3/7)
Length of Visible Light 12h 28m
Length of Day
11h 31m
Waning Crescent, 20% of the Moon is Illuminated
Mar 7
Waning Crescent
Mar 11
New
Mar 19
First Quarter
Mar 27
Full
Apr 2
Last Quarter

Hourly Weather History & Observations

Time (CST) Temp. Windchill Dew Point Humidity Pressure Visibility Wind Dir Wind Speed Gust Speed Precip Events Conditions
12:56 AM 5.0 °F - 1.9 °F 87% 30.38 in 6.0 mi Calm Calm - N/A   Clear
1:56 AM 3.0 °F - -2.0 °F 80% 30.40 in 6.0 mi Calm Calm - N/A   Haze
2:56 AM 1.0 °F - -4.0 °F 79% 30.39 in 8.0 mi Calm Calm - N/A   Clear
3:56 AM -0.0 °F - -5.1 °F 79% 30.38 in 8.0 mi Calm Calm - N/A   Clear
4:21 AM 1.4 °F - -4.0 °F 78% 30.36 in 6.0 mi Calm Calm - N/A   Haze
4:29 AM 1.4 °F - -4.0 °F 78% 30.36 in 7.0 mi Calm Calm - N/A   Mostly Cloudy
4:56 AM 1.0 °F - -2.9 °F 83% 30.40 in 8.0 mi Calm Calm - N/A   Partly Cloudy
5:56 AM -0.9 °F - -6.0 °F 79% 30.40 in 8.0 mi Calm Calm - N/A   Clear
6:56 AM -0.0 °F - -5.1 °F 79% 30.43 in 6.0 mi Calm Calm - N/A   Haze
7:56 AM 1.9 °F - -2.0 °F 83% 30.45 in 6.0 mi Calm Calm - N/A   Clear
8:56 AM 8.1 °F - 3.9 °F 83% 30.45 in 6.0 mi Calm Calm - N/A   Clear
9:56 AM 16.0 °F - 10.9 °F 81% 30.43 in 6.0 mi Calm Calm - 0.00 in Snow Light Snow
10:56 AM 24.1 °F - 16.0 °F 71% 30.43 in 9.0 mi Calm Calm - 0.00 in   Clear
11:56 AM 28.0 °F - 17.1 °F 63% 30.42 in 10.0 mi Calm Calm - N/A   Clear
12:56 PM 34.0 °F - 18.0 °F 52% 30.40 in 10.0 mi Calm Calm - N/A   Clear
1:56 PM 33.1 °F - 19.0 °F 56% 30.40 in 10.0 mi Calm Calm - N/A   Clear
2:56 PM 33.1 °F - 19.0 °F 56% 30.38 in 10.0 mi Calm Calm - N/A   Clear
3:56 PM 34.0 °F - 18.0 °F 52% 30.38 in 10.0 mi Calm Calm - N/A   Clear
4:56 PM 33.1 °F - 18.0 °F 54% 30.38 in 10.0 mi Calm Calm - N/A   Clear
5:56 PM 26.1 °F - 17.1 °F 69% 30.40 in 10.0 mi Calm Calm - N/A   Clear
6:56 PM 19.0 °F - 12.9 °F 77% 30.42 in 10.0 mi Calm Calm - N/A   Clear
7:56 PM 16.0 °F - 10.9 °F 81% 30.43 in 10.0 mi Calm Calm - N/A   Clear
8:56 PM 14.0 °F 8.2 °F 12.0 °F 92% 30.43 in 8.0 mi East 3.5 mph - N/A   Clear
9:56 PM 12.9 °F 0.7 °F 9.0 °F 84% 30.41 in 8.0 mi East 9.2 mph - N/A   Clear
10:56 PM 16.0 °F 10.4 °F 12.0 °F 84% 30.42 in 9.0 mi ENE 3.5 mph - N/A   Clear
11:56 PM 16.0 °F - 12.9 °F 88% 30.43 in 7.0 mi Calm Calm - N/A   Clear